Location: Ammerl�gen
(47.2167°N, 9.6000°E)
Time: 08:01:29
(UTC+00:00)

Iridium 4 Rocket - Pass Details

Date: 02 August 2021
Orbit: 584 x 904 km, 86.9° (Epoch: 18 September)

Event Time Altitude Azimuth Distance (km) Brightness Sun altitude
Rises 23:34:16 0° 8° (N) 3,447 8.2 -25.3°
Reaches altitude 10° 23:37:17 10° 24° (NNE) 2,543 7.1 -25.2°
Maximum altitude 23:41:38 21° 73° (ENE) 1,886 5.7 -25.2°
Enters shadow 23:44:39 15° 110° (ESE) 2,247 5.7 -25.2°
